Powrót do katalogu

COSMOS 2251 DEB

AktywnyLEO
NORAD 33762·DEBRIS·🇷🇺 Russia

Wystrzelony Jun 16, 1993 z Plesetsk Cosmodrome

Loading…

Następne Przeloty (najbliższe 24 godziny)

TLE

ŚwieżeSource: Space-Track

Epoka: Sep 14, 2026, 05:05 UTC

1 33762U 93036K   26257.21214498  .00000076  00000-0  36640-4 0  9991
2 33762  74.0424 166.3747 0015070 169.2326 343.5345 14.33732755919950

Śledź COSMOS 2251 DEB w czasie rzeczywistym z AllMySat

Download on the App Store